| time (UTC) | temp F | wind direction | speed knots | gust knots | rain 1hr in | rain 24hr in | rain mn in | humidity % | barometer mb |
| 20260902161934 | 66 | 268 | 1.7 | 4.3 | 0.00 | 0.00 | 0.00 | 77 | 1017.3 |
| 20260902161436 | 66 | 258 | 1.7 | 5.2 | 0.00 | 0.00 | 0.00 | 77 | 1017.3 |
| 20260902160920 | 66 | 151 | 2.6 | 5.2 | 0.00 | 0.00 | 0.00 | 77 | 1017.3 |
| 20260902160423 | 65 | 107 | 1.7 | 5.2 | 0.00 | 0.00 | 0.00 | 77 | 1017.2 |
| 20260902155925 | 65 | 134 | 1.7 | 5.2 | 0.00 | 0.00 | 0.00 | 76 | 1017.2 |
| 20260902155432 | 65 | 196 | 1.7 | 5.2 | 0.00 | 0.00 | 0.00 | 76 | 1017.2 |
| 20260902154936 | 65 | 134 | 2.6 | 5.2 | 0.00 | 0.00 | 0.00 | 76 | 1017.2 |
| 20260902154422 | 65 | 160 | 2.6 | 5.2 | 0.00 | 0.00 | 0.00 | 76 | 1017.3 |
| 20260902153926 | 65 | 268 | 0.9 | 4.3 | 0.00 | 0.00 | 0.00 | 76 | 1017.2 |
| 20260902153428 | 65 | 158 | 0.9 | 4.3 | 0.00 | 0.00 | 0.00 | 77 | 1017.3 |
| 20260902152931 | 64 | 88 | 0.9 | 3.5 | 0.00 | 0.00 | 0.00 | 77 | 1017.3 |
| 20260902152436 | 64 | 99 | 0.9 | 4.3 | 0.00 | 0.00 | 0.00 | 77 | 1017.3 |
| 20260902151921 | 64 | 55 | 2.6 | 4.3 | 0.00 | 0.00 | 0.00 | 77 | 1017.3 |
| 20260902151425 | 64 | 101 | 0.9 | 3.5 | 0.00 | 0.00 | 0.00 | 78 | 1017.2 |
| 20260902150948 | 63 | 83 | 1.7 | 3.5 | 0.00 | 0.00 | 0.00 | 78 | 1017.3 |
| 20260902150428 | 63 | 168 | 1.7 | 3.5 | 0.00 | 0.00 | 0.00 | 78 | 1017.2 |
| 20260902145929 | 63 | 177 | 0.9 | 2.6 | 0.00 | 0.00 | 0.00 | 78 | 1017.2 |
| 20260902145434 | 63 | 116 | 0.9 | 2.6 | 0.00 | 0.00 | 0.00 | 79 | 1016.9 |
| 20260902144918 | 63 | 34 | 0.9 | 1.7 | 0.00 | 0.00 | 0.00 | 79 | 1016.8 |
| 20260902144446 | 63 | 209 | 0.9 | 1.7 | 0.00 | 0.00 | 0.00 | 79 | 1016.7 |
| 20260902143930 | 62 | 313 | 0.0 | 1.7 | 0.00 | 0.00 | 0.00 | 79 | 1016.7 |
| 20260902143430 | 62 | 45 | 0.0 | 1.7 | 0.00 | 0.00 | 0.00 | 78 | 1016.6 |
| 20260902142934 | 62 | 88 | 0.0 | 1.7 | 0.00 | 0.00 | 0.00 | 78 | 1016.5 |
| 20260902142446 | 62 | 104 | 0.9 | 1.7 | 0.00 | 0.00 | 0.00 | 78 | 1016.6 |
| 20260902141929 | 62 | 205 | 0.9 | 1.7 | 0.00 | 0.00 | 0.00 | 78 | 1016.6 |
| 20260902141435 | 62 | 177 | 0.9 | 1.7 | 0.00 | 0.00 | 0.00 | 78 | 1016.6 |
| 20260902140921 | 62 | 177 | 0.9 | 1.7 | 0.00 | 0.00 | 0.00 | 78 | 1016.6 |
| 20260902140424 | 62 | 177 | 0.9 | 1.7 | 0.00 | 0.00 | 0.00 | 78 | 1016.6 |
| 20260902135921 | 62 | 45 | 0.0 | 1.7 | 0.00 | 0.00 | 0.00 | 78 | 1016.6 |
| 20260902135425 | 63 | 134 | 0.0 | 1.7 | 0.00 | 0.00 | 0.00 | 77 | 1016.6 |
| 20260902134930 | 63 | 134 | 0.9 | 2.6 | 0.00 | 0.00 | 0.00 | 77 | 1016.6 |
| 20260902134434 | 63 | 222 | 0.9 | 2.6 | 0.00 | 0.00 | 0.00 | 77 | 1016.6 |
| 20260902133940 | 63 | 134 | 0.9 | 2.6 | 0.00 | 0.00 | 0.00 | 77 | 1016.5 |
| 20260902133421 | 63 | 151 | 0.9 | 2.6 | 0.00 | 0.00 | 0.00 | 77 | 1016.6 |
| 20260902132925 | 62 | 123 | 0.9 | 1.7 | 0.00 | 0.00 | 0.00 | 77 | 1016.6 |
| 20260902132429 | 62 | 240 | 0.9 | 1.7 | 0.00 | 0.00 | 0.00 | 77 | 1016.5 |
| 20260902131934 | 62 | 222 | 0.9 | 2.6 | 0.00 | 0.00 | 0.00 | 77 | 1016.4 |
| 20260902131449 | 62 | 27 | 0.9 | 2.6 | 0.00 | 0.00 | 0.00 | 77 | 1016.4 |
| 20260902130933 | 62 | 160 | 0.9 | 2.6 | 0.00 | 0.00 | 0.00 | 77 | 1016.4 |
| 20260902130436 | 62 | 147 | 1.7 | 2.6 | 0.00 | 0.00 | 0.00 | 77 | 1016.3 |
| 20260902125921 | 62 | 107 | 0.0 | 1.7 | 0.00 | 0.00 | 0.00 | 77 | 1016.3 |
| 20260902125427 | 62 | 268 | 0.9 | 1.7 | 0.00 | 0.00 | 0.00 | 77 | 1016.3 |
| 20260902124927 | 62 | 88 | 0.9 | 1.7 | 0.00 | 0.00 | 0.00 | 77 | 1016.4 |
| 20260902124433 | 62 | 330 | 0.9 | 2.6 | 0.00 | 0.00 | 0.00 | 77 | 1016.3 |
| 20260902123937 | 62 | 158 | 1.7 | 3.5 | 0.00 | 0.00 | 0.00 | 78 | 1016.2 |
| 20260902123441 | 62 | 1 | 0.9 | 3.5 | 0.00 | 0.00 | 0.00 | 78 | 1016.3 |
| 20260902122924 | 63 | 160 | 1.7 | 3.5 | 0.00 | 0.00 | 0.00 | 78 | 1016.2 |
| 20260902122430 | 63 | 196 | 0.9 | 4.3 | 0.00 | 0.00 | 0.00 | 78 | 1016.2 |
| 20260902121936 | 63 | 88 | 0.9 | 4.3 | 0.00 | 0.00 | 0.00 | 78 | 1016.2 |
| 20260902121434 | 63 | 160 | 0.9 | 5.2 | 0.00 | 0.00 | 0.00 | 78 | 1016.2 |
| 20260902120937 | 62 | 134 | 3.5 | 6.1 | 0.00 | 0.00 | 0.00 | 79 | 1016.3 |
| 20260902120439 | 62 | 177 | 1.7 | 6.1 | 0.00 | 0.00 | 0.00 | 79 | 1016.3 |
| 20260902115922 | 62 | 177 | 0.9 | 3.5 | 0.00 | 0.00 | 0.00 | 79 | 1016.3 |
| 20260902115443 | 62 | 120 | 0.9 | 2.6 | 0.00 | 0.00 | 0.00 | 80 | 1016.4 |
| 20260902114929 | 62 | 88 | 0.9 | 3.5 | 0.00 | 0.00 | 0.00 | 80 | 1016.2 |
| 20260902114431 | 62 | 134 | 1.7 | 3.5 | 0.00 | 0.00 | 0.00 | 80 | 1016.3 |
| 20260902113918 | 62 | 205 | 0.9 | 1.7 | 0.00 | 0.00 | 0.00 | 80 | 1016.2 |
| 20260902113443 | 62 | 128 | 0.9 | 3.5 | 0.00 | 0.00 | 0.00 | 80 | 1016.2 |
| 20260902112928 | 62 | 120 | 1.7 | 3.5 | 0.00 | 0.00 | 0.00 | 80 | 1016.1 |
| 20260902112432 | 62 | 177 | 0.9 | 2.6 | 0.00 | 0.00 | 0.00 | 80 | 1016.1 |
| 20260902111937 | 62 | 107 | 0.9 | 2.6 | 0.00 | 0.00 | 0.00 | 80 | 1016.2 |
| 20260902111421 | 62 | 134 | 0.0 | 1.7 | 0.00 | 0.00 | 0.00 | 80 | 1016.3 |
| 20260902110924 | 62 | 177 | 0.9 | 1.7 | 0.00 | 0.00 | 0.00 | 80 | 1016.2 |
| 20260902110429 | 62 | 88 | 0.0 | 2.6 | 0.00 | 0.00 | 0.00 | 80 | 1016.2 |
| 20260902105932 | 62 | 222 | 0.9 | 2.6 | 0.00 | 0.00 | 0.00 | 80 | 1016.3 |
| 20260902105418 | 62 | 134 | 0.9 | 1.7 | 0.00 | 0.00 | 0.00 | 80 | 1016.3 |
| 20260902104924 | 62 | 151 | 0.9 | 1.7 | 0.00 | 0.00 | 0.00 | 80 | 1016.3 |
| 20260902104458 | 62 | 116 | 0.9 | 1.7 | 0.00 | 0.00 | 0.00 | 80 | 1016.4 |
| 20260902103925 | 62 | 75 | 0.9 | 1.7 | 0.00 | 0.00 | 0.00 | 80 | 1016.4 |
| 20260902103426 | 62 | 88 | 0.9 | 1.7 | 0.00 | 0.00 | 0.00 | 80 | 1016.4 |
| 20260902102932 | 62 | 112 | 0.9 | 2.6 | 0.00 | 0.00 | 0.00 | 80 | 1016.4 |
| 20260902102447 | 62 | 156 | 0.9 | 2.6 | 0.00 | 0.00 | 0.00 | 80 | 1016.4 |
| 20260902101928 | 62 | 138 | 1.7 | 2.6 | 0.00 | 0.00 | 0.00 | 80 | 1016.3 |
| 20260902101435 | 62 | 127 | 1.7 | 2.6 | 0.00 | 0.00 | 0.00 | 80 | 1016.3 |
| 20260902100917 | 62 | 123 | 1.7 | 2.6 | 0.00 | 0.00 | 0.00 | 80 | 1016.3 |
| 20260902100423 | 62 | 112 | 1.7 | 2.6 | 0.00 | 0.00 | 0.00 | 80 | 1016.3 |
| 20260902095923 | 62 | 99 | 0.9 | 4.3 | 0.00 | 0.00 | 0.00 | 80 | 1016.3 |
| 20260902095429 | 62 | 104 | 2.6 | 4.3 | 0.00 | 0.00 | 0.00 | 80 | 1016.3 |
| 20260902094947 | 62 | 147 | 0.9 | 3.5 | 0.00 | 0.00 | 0.00 | 80 | 1016.3 |
| 20260902094434 | 62 | 222 | 0.9 | 4.3 | 0.00 | 0.00 | 0.00 | 80 | 1016.3 |
| 20260902093918 | 62 | 212 | 1.7 | 7.0 | 0.00 | 0.00 | 0.00 | 80 | 1016.3 |
| 20260902093423 | 62 | 235 | 2.6 | 7.8 | 0.00 | 0.00 | 0.00 | 80 | 1016.3 |
| 20260902092922 | 62 | 196 | 2.6 | 7.8 | 0.00 | 0.00 | 0.00 | 80 | 1016.3 |
| 20260902092426 | 62 | 215 | 3.5 | 7.0 | 0.00 | 0.00 | 0.00 | 80 | 1016.2 |
| 20260902091929 | 62 | 211 | 2.6 | 5.2 | 0.00 | 0.00 | 0.00 | 81 | 1016.2 |
| 20260902091432 | 62 | 230 | 3.5 | 5.2 | 0.00 | 0.00 | 0.00 | 81 | 1016.3 |
| 20260902090936 | 62 | 239 | 1.7 | 5.2 | 0.00 | 0.00 | 0.00 | 81 | 1016.3 |
| 20260902090419 | 62 | 240 | 1.7 | 5.2 | 0.00 | 0.00 | 0.00 | 81 | 1016.4 |
| 20260902085923 | 62 | 236 | 2.6 | 5.2 | 0.00 | 0.00 | 0.00 | 81 | 1016.5 |
| 20260902085446 | 62 | 259 | 1.7 | 4.3 | 0.00 | 0.00 | 0.00 | 81 | 1016.5 |
| 20260902084930 | 62 | 244 | 1.7 | 5.2 | 0.00 | 0.00 | 0.00 | 81 | 1016.5 |
| 20260902084433 | 62 | 212 | 1.7 | 5.2 | 0.00 | 0.00 | 0.00 | 81 | 1016.5 |
| 20260902083935 | 62 | 268 | 1.7 | 6.1 | 0.00 | 0.00 | 0.00 | 81 | 1016.5 |
| 20260902083420 | 61 | 196 | 2.6 | 5.2 | 0.00 | 0.00 | 0.00 | 81 | 1016.6 |
| 20260902082920 | 61 | 185 | 1.7 | 3.5 | 0.00 | 0.00 | 0.00 | 81 | 1016.7 |
| 20260902082424 | 61 | 239 | 0.9 | 2.6 | 0.00 | 0.00 | 0.00 | 81 | 1016.7 |
| 20260902081924 | 61 | 222 | 0.9 | 2.6 | 0.00 | 0.00 | 0.00 | 81 | 1016.7 |
| 20260902081431 | 61 | 251 | 0.9 | 3.5 | 0.00 | 0.00 | 0.00 | 81 | 1016.7 |
| 20260902080934 | 61 | 212 | 1.7 | 3.5 | 0.00 | 0.00 | 0.00 | 81 | 1016.6 |
| 20260902080439 | 62 | 232 | 1.7 | 3.5 | 0.00 | 0.00 | 0.00 | 81 | 1016.7 |
| 20260902075941 | 62 | 177 | 0.9 | 3.5 | 0.00 | 0.00 | 0.00 | 81 | 1016.7 |
| 20260902075455 | 62 | 189 | 0.9 | 4.3 | 0.00 | 0.00 | 0.00 | 81 | 1016.7 |
| 20260902074935 | 62 | 209 | 1.7 | 6.1 | 0.00 | 0.00 | 0.00 | 81 | 1016.6 |
| 20260902074421 | 62 | 212 | 3.5 | 6.1 | 0.00 | 0.00 | 0.00 | 81 | 1016.6 |
| 20260902073924 | 62 | 256 | 0.9 | 5.2 | 0.00 | 0.00 | 0.00 | 81 | 1016.6 |
| 20260902073427 | 62 | 184 | 1.7 | 6.1 | 0.00 | 0.00 | 0.00 | 81 | 1016.6 |
| 20260902073017 | 62 | 222 | 2.6 | 6.1 | 0.00 | 0.00 | 0.00 | 81 | 1016.6 |
| 20260902072434 | 62 | 222 | 2.6 | 7.0 | 0.00 | 0.00 | 0.00 | 82 | 1016.6 |
| 20260902071936 | 62 | 231 | 4.3 | 7.0 | 0.00 | 0.00 | 0.00 | 82 | 1016.5 |
| 20260902071420 | 62 | 251 | 3.5 | 7.0 | 0.00 | 0.00 | 0.00 | 82 | 1016.6 |
| 20260902070946 | 62 | 251 | 2.6 | 8.7 | 0.00 | 0.00 | 0.00 | 82 | 1016.7 |
| 20260902070456 | 62 | 240 | 3.5 | 6.1 | 0.00 | 0.00 | 0.00 | 83 | 1016.6 |
| 20260902065932 | 62 | 251 | 3.5 | 7.8 | 0.00 | 0.00 | 0.00 | 83 | 1016.5 |
| 20260902065435 | 61 | 206 | 3.5 | 7.8 | 0.00 | 0.00 | 0.00 | 83 | 1016.5 |
| 20260902064934 | 61 | 232 | 1.7 | 4.3 | 0.00 | 0.00 | 0.00 | 83 | 1016.5 |
| 20260902064437 | 61 | 226 | 1.7 | 4.3 | 0.00 | 0.00 | 0.00 | 83 | 1016.6 |
| 20260902063921 | 61 | 256 | 1.7 | 3.5 | 0.00 | 0.00 | 0.00 | 83 | 1016.5 |
| 20260902063423 | 61 | 212 | 1.7 | 3.5 | 0.00 | 0.00 | 0.00 | 83 | 1016.5 |
| 20260902062947 | 61 | 230 | 0.9 | 2.6 | 0.00 | 0.00 | 0.00 | 83 | 1016.7 |
| 20260902062433 | 61 | 177 | 0.9 | 2.6 | 0.00 | 0.00 | 0.00 | 83 | 1016.6 |
| 20260902061935 | 61 | 88 | 0.9 | 1.7 | 0.00 | 0.00 | 0.00 | 83 | 1016.6 |
| 20260902061437 | 61 | 205 | 0.9 | 2.6 | 0.00 | 0.00 | 0.00 | 83 | 1016.5 |
| 20260902060951 | 61 | 222 | 0.9 | 2.6 | 0.00 | 0.00 | 0.00 | 83 | 1016.6 |
| 20260902060459 | 61 | 215 | 0.9 | 1.7 | 0.00 | 0.00 | 0.00 | 83 | 1016.6 |
| 20260902055924 | 61 | 268 | 0.9 | 1.7 | 0.00 | 0.00 | 0.00 | 83 | 1016.7 |
| 20260902055425 | 61 | 134 | 0.9 | 1.7 | 0.00 | 0.00 | 0.00 | 83 | 1016.6 |
| 20260902054924 | 61 | 123 | 0.9 | 1.7 | 0.00 | 0.00 | 0.00 | 83 | 1016.6 |
| 20260902054429 | 61 | 134 | 0.9 | 1.7 | 0.00 | 0.00 | 0.00 | 83 | 1016.7 |
| 20260902053935 | 62 | 151 | 0.9 | 1.7 | 0.00 | 0.00 | 0.00 | 82 | 1016.6 |
| 20260902053419 | 62 | 116 | 0.9 | 1.7 | 0.00 | 0.00 | 0.00 | 82 | 1016.6 |
| 20260902052920 | 62 | 144 | 0.9 | 1.7 | 0.00 | 0.00 | 0.00 | 82 | 1016.7 |
| 20260902052421 | 62 | 123 | 0.9 | 1.7 | 0.00 | 0.00 | 0.00 | 82 | 1016.6 |
| 20260902051926 | 62 | 151 | 0.9 | 3.5 | 0.00 | 0.00 | 0.00 | 82 | 1016.6 |
| 20260902051427 | 62 | 151 | 1.7 | 3.5 | 0.00 | 0.00 | 0.00 | 82 | 1016.6 |
| 20260902050931 | 62 | 144 | 1.7 | 2.6 | 0.00 | 0.00 | 0.00 | 82 | 1016.7 |
| 20260902050435 | 62 | 148 | 1.7 | 2.6 | 0.00 | 0.00 | 0.00 | 82 | 1016.7 |
| 20260902045939 | 62 | 212 | 0.9 | 4.3 | 0.00 | 0.00 | 0.00 | 82 | 1016.8 |
| 20260902045424 | 62 | 192 | 1.7 | 5.2 | 0.00 | 0.00 | 0.00 | 82 | 1016.8 |
| 20260902044926 | 62 | 217 | 2.6 | 5.2 | 0.00 | 0.00 | 0.00 | 82 | 1016.8 |
| 20260902044432 | 62 | 205 | 1.7 | 4.3 | 0.00 | 0.00 | 0.00 | 82 | 1016.7 |
| 20260902043936 | 62 | 193 | 1.7 | 4.3 | 0.00 | 0.00 | 0.00 | 82 | 1016.8 |
| 20260902043420 | 62 | 213 | 1.7 | 4.3 | 0.00 | 0.00 | 0.00 | 82 | 1016.7 |
| 20260902042922 | 63 | 213 | 1.7 | 5.2 | 0.00 | 0.00 | 0.00 | 82 | 1016.8 |
| 20260902042428 | 63 | 177 | 2.6 | 4.3 | 0.00 | 0.00 | 0.00 | 82 | 1016.7 |
| 20260902041935 | 63 | 240 | 2.6 | 5.2 | 0.00 | 0.00 | 0.00 | 82 | 1016.8 |
| 20260902041436 | 63 | 198 | 1.7 | 5.2 | 0.00 | 0.00 | 0.00 | 82 | 1016.7 |
| 20260902040924 | 63 | 256 | 2.6 | 5.2 | 0.00 | 0.00 | 0.00 | 82 | 1016.7 |
| 20260902040458 | 63 | 219 | 2.6 | 7.8 | 0.00 | 0.00 | 0.00 | 82 | 1016.7 |
| 20260902035920 | 63 | 268 | 4.3 | 7.8 | 0.00 | 0.00 | 0.00 | 82 | 1016.6 |
| 20260902035425 | 63 | 209 | 2.6 | 7.0 | 0.00 | 0.00 | 0.00 | 82 | 1016.6 |
| 20260902034932 | 63 | 261 | 3.5 | 7.0 | 0.00 | 0.00 | 0.00 | 82 | 1016.6 |
| 20260902034418 | 63 | 223 | 3.5 | 7.0 | 0.00 | 0.00 | 0.00 | 82 | 1016.5 |
| 20260902033919 | 63 | 222 | 2.6 | 7.8 | 0.00 | 0.00 | 0.00 | 82 | 1016.5 |
| 20260902033424 | 63 | 220 | 3.5 | 8.7 | 0.00 | 0.00 | 0.00 | 82 | 1016.4 |
| 20260902032926 | 63 | 212 | 4.3 | 8.7 | 0.00 | 0.00 | 0.00 | 82 | 1016.4 |
| 20260902032434 | 63 | 313 | 3.5 | 6.1 | 0.00 | 0.00 | 0.00 | 82 | 1016.3 |
| 20260902031918 | 63 | 282 | 1.7 | 9.6 | 0.00 | 0.00 | 0.00 | 82 | 1016.4 |
| 20260902031423 | 63 | 323 | 2.6 | 9.6 | 0.00 | 0.00 | 0.00 | 82 | 1016.5 |
| 20260902030929 | 63 | 259 | 5.2 | 8.7 | 0.00 | 0.00 | 0.00 | 82 | 1016.4 |
| 20260902030429 | 63 | 215 | 3.5 | 6.1 | 0.00 | 0.00 | 0.00 | 82 | 1016.4 |
| 20260902025934 | 63 | 225 | 3.5 | 10.4 | 0.00 | 0.00 | 0.00 | 82 | 1016.4 |
| 20260902025447 | 63 | 239 | 6.1 | 10.4 | 0.00 | 0.00 | 0.00 | 81 | 1016.4 |
| 20260902024931 | 63 | 242 | 1.7 | 7.8 | 0.00 | 0.00 | 0.00 | 81 | 1016.3 |
| 20260902024437 | 63 | 235 | 4.3 | 8.7 | 0.00 | 0.00 | 0.00 | 81 | 1016.4 |
| 20260902023923 | 64 | 275 | 2.6 | 9.6 | 0.00 | 0.00 | 0.00 | 81 | 1016.3 |
| 20260902023444 | 63 | 268 | 5.2 | 9.6 | 0.00 | 0.00 | 0.00 | 80 | 1016.3 |
| 20260902022924 | 64 | 242 | 4.3 | 8.7 | 0.00 | 0.00 | 0.00 | 80 | 1016.3 |
| 20260902022429 | 64 | 268 | 2.6 | 8.7 | 0.00 | 0.00 | 0.00 | 80 | 1016.4 |
| 20260902021936 | 64 | 261 | 3.5 | 7.0 | 0.00 | 0.00 | 0.00 | 80 | 1016.4 |
| 20260902021452 | 64 | 200 | 4.3 | 9.6 | 0.00 | 0.00 | 0.00 | 80 | 1016.4 |
| 20260902020937 | 64 | 204 | 6.1 | 9.6 | 0.00 | 0.00 | 0.00 | 79 | 1016.2 |
| 20260902020421 | 64 | 235 | 4.3 | 8.7 | 0.00 | 0.00 | 0.00 | 79 | 1016.3 |
| 20260902015942 | 64 | 200 | 3.5 | 7.8 | 0.00 | 0.00 | 0.00 | 78 | 1016.3 |
| 20260902015457 | 64 | 251 | 4.3 | 7.8 | 0.00 | 0.00 | 0.00 | 78 | 1016.3 |
| 20260902014938 | 64 | 237 | 2.6 | 7.0 | 0.00 | 0.00 | 0.00 | 77 | 1016.3 |
| 20260902014452 | 64 | 252 | 3.5 | 8.7 | 0.00 | 0.00 | 0.00 | 76 | 1016.3 |
| 20260902013936 | 64 | 227 | 5.2 | 9.6 | 0.00 | 0.00 | 0.00 | 75 | 1016.3 |
| 20260902013440 | 64 | 222 | 4.3 | 10.4 | 0.00 | 0.00 | 0.00 | 75 | 1016.3 |
| 20260902012959 | 65 | 229 | 7.0 | 12.2 | 0.00 | 0.00 | 0.00 | 74 | 1016.3 |
| 20260902012422 | 65 | 221 | 5.2 | 13.0 | 0.00 | 0.00 | 0.00 | 74 | 1016.2 |
| 20260902011927 | 65 | 217 | 6.1 | 13.0 | 0.00 | 0.00 | 0.00 | 74 | 1016.1 |
| 20260902011433 | 65 | 211 | 7.0 | 12.2 | 0.00 | 0.00 | 0.00 | 73 | 1016.1 |
| 20260902010940 | 65 | 228 | 6.1 | 11.3 | 0.00 | 0.00 | 0.00 | 74 | 1016.1 |
| 20260902010435 | 65 | 221 | 7.8 | 11.3 | 0.00 | 0.00 | 0.00 | 74 | 1016.1 |
| 20260902005920 | 65 | 268 | 4.3 | 15.6 | 0.00 | 0.00 | 0.00 | 74 | 1016.1 |
| 20260902005420 | 65 | 212 | 7.8 | 15.6 | 0.00 | 0.00 | 0.00 | 73 | 1016.1 |
| 20260902004925 | 65 | 258 | 7.0 | 13.0 | 0.00 | 0.00 | 0.00 | 73 | 1016.2 |
| 20260902004428 | 66 | 236 | 5.2 | 11.3 | 0.00 | 0.00 | 0.00 | 73 | 1016.1 |
| 20260902003934 | 66 | 181 | 5.2 | 13.0 | 0.00 | 0.00 | 0.00 | 73 | 1016.0 |
| 20260902003435 | 66 | 205 | 5.2 | 13.0 | 0.00 | 0.00 | 0.00 | 73 | 1016.0 |
| 20260902002918 | 66 | 240 | 6.1 | 14.8 | 0.00 | 0.00 | 0.00 | 73 | 1016.0 |
| 20260902002442 | 66 | 198 | 6.1 | 14.8 | 0.00 | 0.00 | 0.00 | 73 | 1016.0 |
| 20260902001925 | 66 | 215 | 7.0 | 12.2 | 0.00 | 0.00 | 0.00 | 72 | 1016.0 |
| 20260902001455 | 66 | 221 | 7.8 | 12.2 | 0.00 | 0.00 | 0.00 | 71 | 1016.1 |
| 20260902000946 | 66 | 249 | 7.0 | 13.0 | 0.00 | 0.00 | 0.00 | 72 | 1016.1 |
| 20260902000429 | 66 | 241 | 7.8 | 13.9 | 0.00 | 0.00 | 0.00 | 72 | 1016.1 |
| 20260901235931 | 66 | 217 | 6.1 | 14.8 | 0.00 | 0.00 | 0.00 | 72 | 1016.1 |
| 20260901235438 | 66 | 225 | 7.8 | 15.6 | 0.00 | 0.00 | 0.00 | 72 | 1016.1 |
| 20260901234936 | 65 | 251 | 7.8 | 15.6 | 0.00 | 0.00 | 0.00 | 72 | 1016.2 |
| 20260901234419 | 66 | 202 | 5.2 | 13.9 | 0.00 | 0.00 | 0.00 | 73 | 1016.1 |
| 20260901233924 | 66 | 215 | 6.1 | 13.0 | 0.00 | 0.00 | 0.00 | 73 | 1016.2 |
| 20260901233429 | 66 | 225 | 7.8 | 13.0 | 0.00 | 0.00 | 0.00 | 73 | 1016.2 |
| 20260901232934 | 66 | 246 | 4.3 | 15.6 | 0.00 | 0.00 | 0.00 | 73 | 1016.2 |
| 20260901232420 | 67 | 226 | 7.0 | 12.2 | 0.00 | 0.00 | 0.00 | 73 | 1016.3 |
| 20260901231923 | 66 | 268 | 4.3 | 13.0 | 0.00 | 0.00 | 0.00 | 73 | 1016.3 |
| 20260901231423 | 66 | 219 | 7.0 | 13.0 | 0.00 | 0.00 | 0.00 | 73 | 1016.4 |
| 20260901230931 | 67 | 224 | 7.0 | 13.0 | 0.00 | 0.00 | 0.00 | 73 | 1016.4 |
| 20260901230434 | 66 | 223 | 7.0 | 14.8 | 0.00 | 0.00 | 0.00 | 73 | 1016.4 |
| 20260901225918 | 66 | 251 | 8.7 | 14.8 | 0.00 | 0.00 | 0.00 | 72 | 1016.5 |
| 20260901225444 | 66 | 209 | 8.7 | 15.6 | 0.00 | 0.00 | 0.00 | 72 | 1016.5 |
| 20260901224955 | 67 | 240 | 6.1 | 15.6 | 0.00 | 0.00 | 0.00 | 72 | 1016.6 |
| 20260901224419 | 67 | 334 | 5.2 | 11.3 | 0.00 | 0.00 | 0.00 | 71 | 1016.5 |
| 20260901223921 | 68 | 209 | 6.1 | 11.3 | 0.00 | 0.00 | 0.00 | 71 | 1016.6 |
| 20260901223424 | 68 | 227 | 5.2 | 12.2 | 0.00 | 0.00 | 0.00 | 72 | 1016.6 |
| 20260901222927 | 67 | 275 | 7.0 | 13.9 | 0.00 | 0.00 | 0.00 | 72 | 1016.6 |
| 20260901222433 | 67 | 237 | 5.2 | 13.9 | 0.00 | 0.00 | 0.00 | 72 | 1016.5 |
| 20260901221936 | 67 | 283 | 7.0 | 14.8 | 0.00 | 0.00 | 0.00 | 72 | 1016.6 |
| 20260901221420 | 67 | 220 | 8.7 | 14.8 | 0.00 | 0.00 | 0.00 | 72 | 1016.6 |
| 20260901220926 | 67 | 227 | 5.2 | 13.9 | 0.00 | 0.00 | 0.00 | 72 | 1016.6 |
| 20260901220454 | 67 | 214 | 9.6 | 13.9 | 0.00 | 0.00 | 0.00 | 72 | 1016.6 |
| 20260901215937 | 67 | 268 | 6.1 | 12.2 | 0.00 | 0.00 | 0.00 | 72 | 1016.6 |
| 20260901215441 | 67 | 294 | 7.8 | 12.2 | 0.00 | 0.00 | 0.00 | 72 | 1016.5 |
| 20260901214952 | 68 | 295 | 7.8 | 13.9 | 0.00 | 0.00 | 0.00 | 71 | 1016.5 |
| 20260901214437 | 68 | 242 | 6.1 | 13.9 | 0.00 | 0.00 | 0.00 | 70 | 1016.5 |
| 20260901213940 | 68 | 271 | 5.2 | 12.2 | 0.00 | 0.00 | 0.00 | 70 | 1016.5 |
| 20260901213438 | 68 | 231 | 7.0 | 12.2 | 0.00 | 0.00 | 0.00 | 70 | 1016.5 |
| 20260901212951 | 68 | 263 | 6.1 | 12.2 | 0.00 | 0.00 | 0.00 | 70 | 1016.6 |
| 20260901212433 | 68 | 296 | 6.1 | 13.0 | 0.00 | 0.00 | 0.00 | 71 | 1016.6 |
| 20260901211918 | 67 | 237 | 5.2 | 13.0 | 0.00 | 0.00 | 0.00 | 72 | 1016.5 |
| 20260901211442 | 67 | 226 | 4.3 | 10.4 | 0.00 | 0.00 | 0.00 | 71 | 1016.6 |
| 20260901210925 | 67 | 235 | 4.3 | 10.4 | 0.00 | 0.00 | 0.00 | 71 | 1016.6 |
| 20260901210425 | 67 | 271 | 5.2 | 12.2 | 0.00 | 0.00 | 0.00 | 70 | 1016.5 |
| 20260901205930 | 67 | 322 | 6.1 | 12.2 | 0.00 | 0.00 | 0.00 | 71 | 1016.4 |
| 20260901205435 | 67 | 271 | 6.1 | 12.2 | 0.00 | 0.00 | 0.00 | 71 | 1016.4 |
| 20260901204948 | 67 | 275 | 6.1 | 11.3 | 0.00 | 0.00 | 0.00 | 70 | 1016.5 |
| 20260901204434 | 67 | 281 | 5.2 | 12.2 | 0.00 | 0.00 | 0.00 | 70 | 1016.5 |
| 20260901203918 | 67 | 252 | 7.0 | 12.2 | 0.00 | 0.00 | 0.00 | 70 | 1016.6 |
| 20260901203423 | 66 | 247 | 5.2 | 10.4 | 0.00 | 0.00 | 0.00 | 71 | 1016.5 |
| 20260901202921 | 66 | 261 | 6.1 | 10.4 | 0.00 | 0.00 | 0.00 | 71 | 1016.5 |
| 20260901202426 | 67 | 239 | 5.2 | 11.3 | 0.00 | 0.00 | 0.00 | 70 | 1016.6 |
| 20260901201931 | 67 | 220 | 5.2 | 12.2 | 0.00 | 0.00 | 0.00 | 71 | 1016.6 |
| 20260901201436 | 67 | 273 | 6.1 | 12.2 | 0.00 | 0.00 | 0.00 | 73 | 1016.6 |
| 20260901200921 | 66 | 273 | 6.1 | 11.3 | 0.00 | 0.00 | 0.00 | 72 | 1016.6 |
| 20260901200428 | 67 | 230 | 7.0 | 12.2 | 0.00 | 0.00 | 0.00 | 72 | 1016.6 |
| 20260901195929 | 66 | 234 | 5.2 | 13.0 | 0.00 | 0.00 | 0.00 | 71 | 1016.6 |
| 20260901195432 | 66 | 196 | 6.1 | 13.0 | 0.00 | 0.00 | 0.00 | 70 | 1016.6 |
| 20260901194935 | 66 | 207 | 6.1 | 13.9 | 0.00 | 0.00 | 0.00 | 70 | 1016.6 |
| 20260901194420 | 66 | 212 | 7.0 | 13.0 | 0.00 | 0.00 | 0.00 | 71 | 1016.7 |
| 20260901193952 | 66 | 209 | 6.1 | 13.0 | 0.00 | 0.00 | 0.00 | 72 | 1016.7 |
| 20260901193438 | 66 | 233 | 7.8 | 13.0 | 0.00 | 0.00 | 0.00 | 72 | 1016.6 |
| 20260901192919 | 66 | 238 | 6.1 | 12.2 | 0.00 | 0.00 | 0.00 | 73 | 1016.8 |
| 20260901192422 | 66 | 282 | 5.2 | 12.2 | 0.00 | 0.00 | 0.00 | 72 | 1016.8 |
| 20260901191921 | 66 | 222 | 4.3 | 12.2 | 0.00 | 0.00 | 0.00 | 73 | 1016.9 |
| 20260901191427 | 66 | 238 | 6.1 | 12.2 | 0.00 | 0.00 | 0.00 | 73 | 1016.8 |
| 20260901190932 | 66 | 211 | 5.2 | 12.2 | 0.00 | 0.00 | 0.00 | 74 | 1016.9 |
| 20260901190427 | 65 | 222 | 8.7 | 12.2 | 0.00 | 0.00 | 0.00 | 73 | 1016.7 |
| 20260901185922 | 65 | 259 | 5.2 | 12.2 | 0.00 | 0.00 | 0.00 | 73 | 1016.8 |
| 20260901185426 | 66 | 230 | 6.1 | 12.2 | 0.00 | 0.00 | 0.00 | 74 | 1016.9 |
| 20260901184932 | 65 | 222 | 7.0 | 13.9 | 0.00 | 0.00 | 0.00 | 74 | 1016.8 |
| 20260901184433 | 66 | 189 | 6.1 | 9.6 | 0.00 | 0.00 | 0.00 | 74 | 1016.8 |
| 20260901183928 | 66 | 264 | 4.3 | 10.4 | 0.00 | 0.00 | 0.00 | 74 | 1016.8 |
| 20260901183430 | 65 | 221 | 6.1 | 10.4 | 0.00 | 0.00 | 0.00 | 74 | 1016.8 |
| 20260901182934 | 65 | 299 | 3.5 | 8.7 | 0.00 | 0.00 | 0.00 | 74 | 1016.8 |
| 20260901182419 | 65 | 257 | 4.3 | 8.7 | 0.00 | 0.00 | 0.00 | 74 | 1016.8 |
| 20260901181924 | 65 | 249 | 3.5 | 8.7 | 0.00 | 0.00 | 0.00 | 75 | 1016.8 |
| 20260901181428 | 65 | 222 | 6.1 | 8.7 | 0.00 | 0.00 | 0.00 | 74 | 1016.7 |
| 20260901180929 | 65 | 207 | 4.3 | 8.7 | 0.00 | 0.00 | 0.00 | 73 | 1016.8 |
| 20260901180435 | 65 | 213 | 4.3 | 8.7 | 0.00 | 0.00 | 0.00 | 74 | 1016.7 |
| 20260901175947 | 65 | 227 | 5.2 | 8.7 | 0.00 | 0.00 | 0.00 | 75 | 1016.7 |
| 20260901175430 | 65 | 214 | 1.7 | 8.7 | 0.00 | 0.00 | 0.00 | 77 | 1016.8 |
| 20260901174931 | 64 | 183 | 3.5 | 8.7 | 0.00 | 0.00 | 0.00 | 77 | 1016.7 |
| 20260901174435 | 64 | 231 | 4.3 | 10.4 | 0.00 | 0.00 | 0.00 | 76 | 1016.7 |
| 20260901173937 | 65 | 203 | 4.3 | 7.8 | 0.00 | 0.00 | 0.00 | 77 | 1016.6 |
| 20260901173447 | 64 | 183 | 4.3 | 9.6 | 0.00 | 0.00 | 0.00 | 77 | 1016.5 |
| 20260901172929 | 64 | 212 | 5.2 | 9.6 | 0.00 | 0.00 | 0.00 | 77 | 1016.5 |
| 20260901172433 | 64 | 196 | 3.5 | 9.6 | 0.00 | 0.00 | 0.00 | 77 | 1016.5 |
| 20260901171938 | 64 | 215 | 4.3 | 8.7 | 0.00 | 0.00 | 0.00 | 78 | 1016.5 |
| 20260901171438 | 64 | 244 | 2.6 | 10.4 | 0.00 | 0.00 | 0.00 | 78 | 1016.4 |
| 20260901170918 | 64 | 222 | 4.3 | 7.0 | 0.00 | 0.00 | 0.00 | 78 | 1016.4 |
| 20260901170433 | 64 | 194 | 3.5 | 9.6 | 0.00 | 0.00 | 0.00 | 78 | 1016.4 |
| 20260901165935 | 64 | 196 | 5.2 | 9.6 | 0.00 | 0.00 | 0.00 | 78 | 1016.4 |
| 20260901165437 | 64 | 254 | 3.5 | 9.6 | 0.00 | 0.00 | 0.00 | 78 | 1016.3 |
| 20260901164919 | 64 | 284 | 5.2 | 7.8 | 0.00 | 0.00 | 0.00 | 79 | 1016.2 |
| 20260901164423 | 64 | 268 | 2.6 | 9.6 | 0.00 | 0.00 | 0.00 | 79 | 1016.2 |
| 20260901163925 | 63 | 286 | 5.2 | 9.6 | 0.00 | 0.00 | 0.00 | 79 | 1016.2 |
| 20260901163427 | 63 | 360 | 4.3 | 7.8 | 0.00 | 0.00 | 0.00 | 80 | 1016.2 |
| 20260901162926 | 63 | 283 | 3.5 | 7.0 | 0.00 | 0.00 | 0.00 | 80 | 1016.1 |
| 20260901162430 | 63 | 214 | 5.2 | 7.0 | 0.00 | 0.00 | 0.00 | 81 | 1016.1 |